Time,TemperatureF,DewpointF,PressureIn,WindDirection,WindDirectionDegrees,WindSpeedMPH,WindSpeedGustMPH,Humidity,HourlyPrecipIn,Conditions,Clouds,dailyrainin,SoftwareType,DateUTC
2013-03-02 00:00:00,32.1,30.3,29.93,NNE,17,0.0,2.0,93,0.00,,---,0.00,VWS V12.07,2013-03-02 05:00:00,
2013-03-02 00:30:00,32.1,30.3,29.92,North,5,0.0,3.0,93,0.00,,---,0.00,VWS V12.07,2013-03-02 05:30:00,
2013-03-02 01:00:00,31.9,30.4,29.91,NNE,17,0.0,2.0,94,0.00,,---,0.00,VWS V12.07,2013-03-02 06:00:00,
2013-03-02 01:30:00,31.9,30.4,29.91,North,5,0.0,3.0,94,0.00,,---,0.00,VWS V12.07,2013-03-02 06:30:00,
2013-03-02 02:00:00,31.6,30.1,29.91,NNE,15,0.0,1.0,94,0.00,,---,0.00,VWS V12.07,2013-03-02 07:00:00,
2013-03-02 02:30:00,31.6,30.1,29.91,ENE,58,0.0,0.0,94,0.00,,---,0.00,VWS V12.07,2013-03-02 07:30:00,
2013-03-02 03:00:00,31.6,30.3,29.90,NE,51,0.0,0.0,95,0.00,,---,0.00,VWS V12.07,2013-03-02 08:00:00,
2013-03-02 03:30:00,31.5,30.2,29.89,North,11,0.0,0.0,95,0.00,,---,0.00,VWS V12.07,2013-03-02 08:30:00,
2013-03-02 04:00:00,31.3,30.0,29.89,NE,50,0.0,0.0,95,0.00,,---,0.00,VWS V12.07,2013-03-02 09:00:00,
2013-03-02 04:30:00,31.3,30.3,29.88,NNE,13,0.0,0.0,96,0.00,,---,0.00,VWS V12.07,2013-03-02 09:30:00,
2013-03-02 05:00:00,31.5,30.5,29.89,NE,40,0.0,0.0,96,0.00,,---,0.00,VWS V12.07,2013-03-02 10:00:00,
2013-03-02 05:30:00,31.5,30.5,29.89,NE,40,0.0,0.0,96,0.00,,---,0.00,VWS V12.07,2013-03-02 10:30:00,
2013-03-02 06:00:00,31.3,30.3,29.89,North,10,0.0,2.0,96,0.00,,---,0.00,VWS V12.07,2013-03-02 11:00:00,
2013-03-02 06:30:00,31.3,30.3,29.90,NNE,15,0.0,0.0,96,0.00,,---,0.00,VWS V12.07,2013-03-02 11:30:00,
2013-03-02 07:00:00,31.2,30.2,29.90,North,5,0.0,4.0,96,0.00,,---,0.00,VWS V12.07,2013-03-02 12:00:00,
2013-03-02 07:30:00,31.2,29.9,29.91,NE,46,1.0,4.0,95,0.00,,---,0.00,VWS V12.07,2013-03-02 12:30:00,
2013-03-02 08:00:00,31.2,29.7,29.91,NNW,329,1.0,4.0,94,0.00,,---,0.00,VWS V12.07,2013-03-02 13:00:00,
2013-03-02 08:30:00,31.3,29.5,29.92,NNE,15,0.0,3.0,93,0.00,,---,0.00,VWS V12.07,2013-03-02 13:30:00,
2013-03-02 09:00:00,31.3,29.2,29.92,NE,42,3.0,6.0,92,0.00,,---,0.00,VWS V12.07,2013-03-02 14:00:00,
2013-03-02 09:30:00,31.3,28.7,29.93,NNE,30,2.0,4.0,90,0.00,,---,0.00,VWS V12.07,2013-03-02 14:30:00,
2013-03-02 10:00:00,31.6,28.2,29.93,NE,38,3.0,5.0,87,0.00,,---,0.00,VWS V12.07,2013-03-02 15:00:00,
2013-03-02 10:30:00,31.5,27.2,29.93,NE,42,0.0,12.0,84,0.01,,---,0.01,VWS V12.07,2013-03-02 15:30:00,
2013-03-02 11:00:00,32.2,27.6,29.94,NNE,19,0.0,6.0,83,0.03,,---,0.02,VWS V12.07,2013-03-02 16:00:00,
2013-03-02 11:30:00,32.4,27.2,29.95,NNE,30,1.0,4.0,81,0.02,,---,0.04,VWS V12.07,2013-03-02 16:30:00,
2013-03-02 12:00:00,32.1,26.6,29.94,NNE,27,3.0,5.0,80,0.01,,---,0.04,VWS V12.07,2013-03-02 17:00:00,
2013-03-02 12:30:00,32.2,26.7,29.93,NNE,28,3.0,4.0,80,0.01,,---,0.05,VWS V12.07,2013-03-02 17:30:00,
2013-03-02 13:00:00,32.5,26.4,29.93,NE,48,0.0,5.0,78,0.01,,---,0.05,VWS V12.07,2013-03-02 18:00:00,
2013-03-02 13:30:00,33.5,26.1,29.91,North,350,2.0,5.0,74,0.00,,---,0.05,VWS V12.07,2013-03-02 18:30:00,
2013-03-02 14:00:00,32.4,26.3,29.92,North,360,0.0,4.0,78,0.01,,---,0.06,VWS V12.07,2013-03-02 19:00:00,
2013-03-02 14:30:00,32.5,26.7,29.92,NE,42,3.0,7.0,79,0.01,,---,0.06,VWS V12.07,2013-03-02 19:30:00,
2013-03-02 15:00:00,32.4,26.0,29.92,NNE,19,2.0,5.0,77,0.00,,---,0.06,VWS V12.07,2013-03-02 20:00:00,
2013-03-02 15:30:00,32.2,27.3,29.92,NNE,28,0.0,3.0,82,0.00,,---,0.06,VWS V12.07,2013-03-02 20:30:00,
2013-03-02 16:00:00,32.8,27.3,29.91,NNE,33,4.0,9.0,80,0.00,,---,0.06,VWS V12.07,2013-03-02 21:00:00,
2013-03-02 16:30:00,32.4,28.4,29.91,WNW,298,2.0,6.0,85,0.00,,---,0.06,VWS V12.07,2013-03-02 21:30:00,
2013-03-02 17:00:00,32.7,27.5,29.92,NNE,18,1.0,5.0,81,0.00,,---,0.06,VWS V12.07,2013-03-02 22:00:00,
2013-03-02 17:30:00,32.4,26.9,29.92,NE,36,4.0,4.0,80,0.00,,---,0.06,VWS V12.07,2013-03-02 22:30:00,
2013-03-02 18:00:00,31.3,27.3,29.94,NNE,14,3.0,7.0,85,0.00,,---,0.06,VWS V12.07,2013-03-02 23:00:00,
2013-03-02 18:30:00,30.6,27.5,29.95,NNE,20,1.0,4.0,88,0.00,,---,0.06,VWS V12.07,2013-03-02 23:30:00,
2013-03-02 19:00:00,30.1,27.0,29.96,NNE,17,2.0,6.0,88,0.00,,---,0.06,VWS V12.07,2013-03-03 00:00:00,
2013-03-02 19:30:00,29.7,25.2,29.97,North,5,0.0,3.0,83,0.00,,---,0.06,VWS V12.07,2013-03-03 00:30:00,
2013-03-02 20:00:00,29.7,24.0,29.97,North,5,0.0,4.0,79,0.00,,---,0.06,VWS V12.07,2013-03-03 01:00:00,
2013-03-02 20:30:00,29.4,24.0,29.98,NNE,20,1.0,3.0,80,0.00,,---,0.06,VWS V12.07,2013-03-03 01:30:00,
2013-03-02 21:00:00,29.0,22.7,29.98,NNE,23,0.0,3.0,77,0.00,,---,0.06,VWS V12.07,2013-03-03 02:00:00,
2013-03-02 21:30:00,28.7,22.1,29.98,North,5,0.0,2.0,76,0.00,,---,0.06,VWS V12.07,2013-03-03 02:30:00,
2013-03-02 22:00:00,28.4,22.1,29.99,NE,35,0.0,2.0,77,0.00,,---,0.06,VWS V12.07,2013-03-03 03:00:00,
2013-03-02 22:30:00,28.1,22.4,29.99,North,5,2.0,4.0,79,0.00,,---,0.06,VWS V12.07,2013-03-03 03:30:00,
2013-03-02 23:00:00,27.8,22.4,29.99,NNE,15,2.0,4.0,80,0.00,,---,0.06,VWS V12.07,2013-03-03 04:00:00,
2013-03-02 23:30:00,27.3,21.1,30.00,North,5,0.0,2.0,77,0.00,,---,0.06,VWS V12.07,2013-03-03 04:30:00,